Weather in Novy Biryuzyak

Russia / Republic of Dagestan     43°46′14″N   47°18′34″E
temp.,
°C
wind,
m/s
gust,
m/s
humid.,
%
clouds,
%
prec.,
mm/h
press.,
hPa
HPBL,
m
25 january, mon
mon2500:00+5se6148435 0.0 1020460
03:00+4se6157756 0.0 1020507
06:00+5se6158799 0.0 1021708
09:00+6se71377100 0.0 1022869
12:00+8se81166100 0.0 1021912
15:00+8se81168100 0.0 1020916
18:00+7se7127257 0.0 1021891
21:00+7ese8147673 0.0 1020795
26 january, tue
tue2600:00+6se716892 0.0 1019658
03:00+6se9158421 0.0 1017689
06:00+7se7127673 0.0 1018761
09:00+8se7107486 0.0 1020854
12:00+9se5767100 0.0 1021897
15:00+8se5571100 0.0 1021749
18:00+7se5779100 0.0 1023323
21:00+6se488195 0.0 1022340
27 january, wed
wed2700:00+5ese498627 0.0 1021224
03:00+4ese488913 0.0 1020201
06:00+4e410920 0.0 1019236
09:00+6se611800 0.0 1018566
12:00+9se1117720 0.0 1016775
15:00+8se11177526 0.0 1014820
18:00+8ese12198299 0.0 1013808
21:00+7se11198298 0.0 1011792
28 january, thu
thu2800:00+7se101883100 0.0 1009754
03:00+6se61485100 0.0 1007487
06:00+5s2392100 0.0 100752
09:00+5wsw3380100 0.0 1007146
12:00+10w225766 0.0 1005358
15:00+12nnw224746 0.0 1004471
18:00+8w336424 0.0 100340
21:00+7wnw587530 0.0 1003171
29 january, fri
fri2900:00+6wnw71478100 0.0 1004542
03:00+5w71382100 0.0 1005681
06:00+4wnw7138667 0.0 1007432
09:00+5wnw8127665 0.0 1010467
12:00+10nw58580 0.0 1010686
15:00+11n22584 0.0 1010890
18:00+7e467389 0.0 1011151
21:00+6ese337794 0.0 101180